sat.trackr.live / text

‹ back to catalog

STARLINK-36339

NORAD 67340 · 2026-003G

PAYLOAD ACTIVE UNKNOWN

§ Identity

Operator
Country
US
Launch date
2026-01-09
Launch site
AFETR
Launch vehicle
Mass (kg)
RCS (m²)

Purposes: comms

External: N2YO · Heavens-Above · Gunter

§ Orbital elements

Epoch: 2026-05-25T01:25:02.547264Z

Period
94.27 min
Inclination
43.0007°
Eccentricity
0.0000920
Mean motion
15.27594140 rev/d
Perigee alt
482.4 km
Apogee alt
483.6 km
Semi-major
6,861.1 km
B*
5.5527e-4
RAAN
155.7717°
Arg perigee
269.7192°
Mean anomaly
90.3554°
Rev number
2,050

§ Raw data

STARLINK-363391 67340U 26003G   26145.05905726  .00015056  00000+0  55527-3 0  99962 67340  43.0007 155.7717 0000920 269.7192  90.3554 15.27594140 20507

JSON: /api/v1/satellites/67340 · /tle

For live sub-satellite position, see the globe view (requires WebGL).

§ Visibility from observer

Set your observer location to see the next 7 days of passes ≥ 10°. The values pass through the URL so the page stays shareable.

No JS? Fill the form by hand. The geolocation button needs JavaScript.